Location: Gönnheim
(49.4488°N, 8.2383°E)
Time: 05:49:00
(UTC+00:00)

MetOp-A - Pass Details

Date: 19 May 2025
Orbit: 521 x 774 km, 98.3° (Epoch: 22 June)

Event Time Altitude Azimuth Distance (km) Brightness Sun altitude
Exits shadow 22:11:07 36° 159° (SSE) 1,208 4.5 -18.7°
Maximum altitude 22:13:17 85° 76° (ENE) 784 4.0 -18.8°
Drops below altitude 10° 22:18:30 10° 347° (NNW) 2,334 7.8 -19.1°
Sets 22:20:50 0° 347° (NNW) 3,258 8.9 -19.2°
